Regional Weather Roundup
Issued by NWS Wilmington, NC

Current Version | Previous Version | Text Only | Print | Product List | Glossary On
Versions: 1 2 3 4 5 6 7 8 9 10 11 12 13 14 15 16 17 18 19 20 21 22 23 24 25 26 27 28 29 30 31 32 33 34 35 36 37 38 39 40 41 42 43 44
000 ASUS42 KILM 041211 RWRILM RWRILM REGIONAL HOURLY WEATHER ROUNDUP NATIONAL WEATHER SERVICE WILMINGTON NC 700 AM EST THU MAR 04 2021 NOTE: "FAIR" INDICATES FEW OR NO CLOUDS BELOW 12,000 FEET WITH NO SIGNIFICANT WEATHER AND/OR OBSTRUCTIONS TO VISIBILITY. ...............WFO WILMINGTON COUNTY WARNING AREA............... ......COASTAL NC AND SC COUNTIES...... CITY SKY/WX TMP DP RH WIND PRES REMARKS WILMINGTON CLEAR 40 34 79 W5 29.98R N MYRTLE BEACH CLEAR 42 37 82 NW3 29.99R MYRTLE BEACH CLEAR 41 39 93 NW5 30.01R ......INLAND NC AND SC COUNTIES....... CITY SKY/WX TMP DP RH WIND PRES REMARKS LUMBERTON NOT AVBL ELIZABETHTOWN CLEAR 42 29 61 NW5 29.99R WHITEVILLE CLEAR 39 33 78 CALM 30.00R FLORENCE CLEAR 41 31 67 NW3 30.01R DARLINGTON CLEAR 40 32 73 NW7 30.02R KINGSTREE FAIR 34 32 93 CALM 30.02R HARTSVILLE FAIR 43 28 56 CALM 30.02R BENNETTSVILLE FAIR 32 32 100 CALM 30.01R CONWAY FAIR 34 34 100 CALM 30.01R GEORGETOWN FAIR 43 39 87 W3 30.02R MARION FAIR 36 36 100 W3 30.01R ....................REST OF NORTH CAROLINA...................... .........EASTERN NC......... CITY SKY/WX TMP DP RH WIND PRES REMARKS CAPE HATTERAS CLEAR 46 44 93 W5 29.91R JACKSONVILLE CLEAR 33 32 96 CALM 29.97R MOREHEAD CITY CLEAR 45 36 70 NW9 29.93S KENANSVILLE CLEAR 34 30 86 W3 29.97R NEW BERN CLEAR 38 33 82 CALM 29.95R ELIZABETH CITY CLEAR 37 29 72 W6 29.91S WCI 32 .........CENTRAL NC......... CITY SKY/WX TMP DP RH WIND PRES REMARKS RALEIGH DURHAM PTCLDY 36 28 73 CALM 29.98R ROCKY MOUNT CLEAR 40 27 59 CALM 29.96R ROANOKE RAPIDS NOT AVBL FAYETTEVILLE CLEAR 36 31 82 NW5 29.98R WCI 32 HOFFMAN CLEAR 31 30 96 CALM 30.00R .........WESTERN NC......... CITY SKY/WX TMP DP RH WIND PRES REMARKS CHARLOTTE CLEAR 42 27 55 W6 30.02R GREENSBORO PTCLDY 36 25 64 SW6 29.98R WCI 31 HICKORY NOT AVBL BOONE NOT AVBL ASHEVILLE NOT AVBL .....................REST OF SOUTH CAROLINA..................... .........EASTERN SC......... CITY SKY/WX TMP DP RH WIND PRES REMARKS CHARLESTON CLEAR 40 39 97 NW6 30.02R BEAUFORT MCAS CLEAR 42 40 92 CALM 30.02S HILTON HEAD CLEAR 45 43 93 CALM 30.03R .........CENTRAL SC......... CITY SKY/WX TMP DP RH WIND PRES REMARKS COLUMBIA CLEAR 35 31 85 CALM 30.03R ORANGEBURG CLEAR 38 37 97 CALM 30.03R SUMTER SHAW CLEAR 43 31 62 CALM 30.02R .........WESTERN SC......... CITY SKY/WX TMP DP RH WIND PRES REMARKS GREENVILLE NOT AVBL ROCK HILL CLEAR 35 28 75 CALM 30.02R ANDERSON CLEAR 34 29 82 CALM 30.05R CLEMSON NOT AVBL GREENWOOD CLEAR 37 29 72 N3 30.05R ...................COASTAL AND OFFSHORE REPORTS.................. ................LOCAL PIERS AND NC RESERVE................ STATION/POSITION TIME SKY/WX TEMP WIND PRES VSBY AIR SEA DIR/SP/G (UTC) (F) (DEG/KT/KT) (MB) (MI) JOHNY MRCER PIER 1124 46 53 300/ 7/ 10 1014.0 NC RESRV MASNBRO 1045 42 320/ 2 N/A OCEAN CREST PIER NOT AVBL SPRINGMAID PIER 1124 45 N/A ................COASTAL AND OFFSHORE BUOYS................ STATION/POSITION TIME SKY/WX TEMP WIND PRES VSBY AIR SEA DIR/SP/G (UTC) (F) (DEG/KT/KT) (MB) (MI) DIMNDSHOAL 41025 1150 58 71 N/A WVE H/P(F/S)= 4/ 8 SWL H/P/D(F/S/D)= 3/140/ 8 CAPE LOOKOUT 1200 49 320/ 9/ 11 1013.9R ONSLOW BAY 41036 NOT AVBL ONSLOW BAY 41064 NOT AVBL ONSLOW BAY 41159 1126 63 N/A WVE H/P(F/S)= 5/ 8 SWL H/P/D(F/S/D)= 2/130/11 MASNBO INL 41110 1137 54 N/A WVE H/P(F/S)= 3/ 8 WILM HARBR 41108 1100 53 N/A WVE H/P(F/S)= 3/ 8 27SE WRITB 41037 1108 55 60 N/A FRYING PAN 41013 1150 56 56 310/ 10/ 14 1014.1R WVE H/P(F/S)= 4/ 9 SWL H/P/D(F/S/D)= 3/140/ 9 SUNST NRSH 41024 1108 48 53 350/ 10/ 14 1016.0R CAPRS NRSH 41029 1153 51 53 310/ 10/ 14 1015.9R EDISTO 41004 NOT AVBL ..........OFFSHORE BUOYS BEYOND 100 NM OFFSHORE........... .....IN A TRIANGLE---HAT TO BERMUDA TO BAHAMAS TO HAT..... STATION/POSITION TIME SKY/WX TEMP WIND PRES VSBY AIR SEA DIR/SP/G (UTC) (F) (DEG/KT/KT) (MB) (MI) 150E HAT 41001 NOT AVBL W BERMUDA 41048 1150 62 67 10/ 19/ 25 1010.0R WVE H/P(F/S)= 10/ 8 ATLANTIC S 41049 1150 74 210/ 17/ 23 N/A WVE H/P(F/S)= 9/11 SWL H/P/D(F/S/D)= 7/350/11 E BAHAMAS 41046 1150 78 79 200/ 16/ 19 1014.7R WVE H/P(F/S)= 7/12 SWL H/P/D(F/S/D)= 5/360/12 NE BAHAMAS 41047 NOT AVBL 120E CANVRL41010 1150 71 30/ 14/ 17 1013.8R WVE H/P(F/S)= 8/ 8 SWL H/P/D(F/S/D)= 7/ 30/ 8 END

USA.gov is the U.S. government's official web portal to all federal, state and local government web resources and services.